Location: Rounton
(54.4000°N, 1.3500°W)
Time: 14:01:13
(UTC+00:00)

Transit 2A Rocket - Pass Details

Date: 05 December 2021
Orbit: 584 x 918 km, 66.7° (Epoch: 21 January)

Event Time Altitude Azimuth Distance (km) Brightness Sun altitude
Rises 10:47:42 0° 276° (W) 3,481 8.2 11.8°
Reaches altitude 10° 10:50:32 10° 287° (WNW) 2,576 7.5 11.9°
Maximum altitude 10:55:42 28° 346° (NNW) 1,639 6.3 12.1°
Drops below altitude 10° 11:00:58 10° 45° (NE) 2,619 7.5 12.3°
Sets 11:03:52 0° 57° (ENE) 3,549 8.2 12.4°
